Simultaneous Nadir Overpasses (SNOs) Predictions

Prediction of SNOs between LANDSAT-8 and NOAA-19 Satellite Orbit:

Table of predicted SNOs for the next 14.0 days since TLE Epoch: 12/12/2015
Index Date (LANDSAT-8) Time (LANDSAT-8) Lat,Lon (LANDSAT-8) SZA (LANDSAT-8 ) Date (NOAA-19) Time (NOAA-19) Lat,Lon (NOAA-19) SZA (NOAA-19 ) Distance(km) Time Diff (sec)
1 12/14/2015 06:38:49 -73.90, -96.76 82.96 12/14/2015 06:38:43 -73.91, -96.68 82.95 2.86 6
2 12/14/2015 07:28:23 73.46, 69.92 96.58 12/14/2015 07:29:31 73.44, 71.75 96.61 57.99 68
3 12/16/2015 11:23:06 -73.96,-167.71 82.79 12/16/2015 11:21:56 -73.97,-167.59 82.78 3.71 70
4 12/16/2015 12:12:32 73.93, -0.13 97.19 12/16/2015 12:12:52 73.91, -0.17 97.17 3.03 20
5 12/18/2015 16:56:49 73.98, -71.09 97.32 12/18/2015 16:56:05 73.99, -71.14 97.32 1.90 44
6 12/18/2015 17:46:19 -73.86, 96.28 82.81 12/18/2015 17:47:08 -73.88, 96.38 82.79 3.64 49
7 12/20/2015 22:30:35 -73.96, 25.42 82.68 12/20/2015 22:30:21 -73.96, 25.43 82.68 0.35 14
8 12/20/2015 23:20:02 73.87,-167.13 97.24 12/20/2015 23:21:15 73.82,-166.97 97.20 7.34 73
9 12/23/2015 03:14:49 -74.10, -45.34 82.54 12/23/2015 03:13:36 -74.18, -45.92 82.46 20.09 73
10 12/23/2015 04:04:17 73.96, 121.99 97.33 12/23/2015 04:04:28 73.97, 121.91 97.33 2.37 11
11 12/25/2015 08:48:33 74.04, 51.09 97.37 12/25/2015 08:47:40 74.02, 51.03 97.34 2.82 53
12 12/25/2015 09:38:03 -73.92,-141.53 82.76 12/25/2015 09:38:44 -73.92,-141.51 82.75 0.83 41
